EW4498 Weather Reports


time (UTC)temp
C
wind
direction
speed
KPH
gust
KPH
rain 1hr
cm
rain 24hr
cm
rain mn
cm
humidity
%
barometer
mb
20260906154619 19 287 4.8 19.3 0.00 0.18 0.00 59 1022.8
20260906153105 20 244 1.6 22.5 0.00 0.18 0.00 58 1022.7
20260906151544 20 311 3.2 14.5 0.00 0.18 0.00 56 1022.6
20260906150025 20 265 6.4 16.1 0.00 0.18 0.00 57 1022.6
20260906144543 19 225 4.8 16.1 0.00 0.18 0.00 59 1022.6
20260906143143 19 201 6.4 17.7 0.00 0.18 0.00 57 1022.7
20260906141544 19 274 4.8 24.1 0.00 0.18 0.00 57 1022.7
20260906140038 20 276 4.8 19.3 0.00 0.18 0.00 56 1022.5
20260906134534 19 234 3.2 24.1 0.00 0.18 0.00 58 1022.6
20260906133018 18 198 4.8 16.1 0.00 0.18 0.00 58 1022.5
20260906131616 19 243 1.6 24.1 0.00 0.18 0.00 60 1022.5
20260906130041 18 252 4.8 19.3 0.00 0.18 0.00 59 1022.7
20260906124519 19 263 4.8 33.8 0.00 0.18 0.00 56 1022.6
20260906123110 18 348 3.2 17.7 0.00 0.18 0.00 60 1022.5
20260906121519 18 248 3.2 22.5 0.00 0.18 0.00 57 1022.7
20260906120110 18 317 4.8 19.3 0.00 0.18 0.00 56 1022.6
20260906114536 18 223 3.2 17.7 0.00 0.20 0.00 60 1022.4
20260906113135 18 242 6.4 27.4 0.00 0.20 0.00 61 1022.4
20260906111620 18 254 9.7 29.0 0.00 0.20 0.00 61 1022.2
20260906110043 18 218 8.0 24.1 0.00 0.20 0.00 62 1022.0
20260906104516 18 233 6.4 17.7 0.00 0.20 0.00 64 1022.0
20260906103015 18 323 4.8 22.5 0.00 0.20 0.00 60 1022.0
20260906101512 18 317 6.4 19.3 0.00 0.20 0.00 62 1021.8
20260906100010 18 294 3.2 17.7 0.00 0.20 0.00 63 1021.6
20260906094506 17 331 6.4 20.9 0.00 0.20 0.00 64 1021.5
20260906093011 18 341 6.4 19.3 0.00 0.20 0.00 64 1021.3
20260906091603 17 294 4.8 24.1 0.00 0.20 0.00 65 1021.2
20260906090112 17 270 9.7 30.6 0.00 0.20 0.00 67 1021.1
20260906084606 17 324 11.3 25.7 0.00 0.23 0.00 67 1021.1
20260906083053 17 294 8.0 29.0 0.00 0.23 0.00 68 1021.0
20260906081554 17 314 6.4 29.0 0.00 0.23 0.00 69 1020.8
20260906080051 16 206 11.3 27.4 0.00 0.23 0.00 70 1020.5
20260906074546 16 226 11.3 25.7 0.00 0.25 0.00 71 1020.4
20260906073051 16 5 6.4 17.7 0.00 0.25 0.00 74 1020.2
20260906071536 15 15 11.3 29.0 0.00 0.25 0.00 74 1020.2
20260906070039 15 202 3.2 16.1 0.00 0.25 0.00 75 1020.0
20260906064529 15 228 8.0 19.3 0.00 0.25 0.00 77 1019.9
20260906063026 15 255 3.2 14.5 0.00 0.25 0.00 78 1019.8
20260906061521 14 218 6.4 19.3 0.00 0.25 0.00 79 1019.6
20260906060018 13 231 3.2 14.5 0.00 0.25 0.00 80 1019.4
20260906054521 13 209 6.4 25.7 0.00 0.25 0.00 81 1019.3
20260906053012 13 273 4.8 12.9 0.00 0.25 0.00 82 1019.0
20260906051515 12 233 4.8 17.7 0.00 0.25 0.00 83 1018.9
20260906050006 12 232 1.6 12.9 0.00 0.25 0.00 83 1018.8
20260906044504 12 283 3.2 12.9 0.00 0.25 0.00 83 1018.7
20260906043001 12 281 6.4 17.7 0.00 0.25 0.00 84 1018.5
20260906041558 12 285 3.2 11.3 0.00 0.25 0.00 83 1018.2
20260906040113 12 306 4.8 19.3 0.00 0.25 0.00 83 1017.9
20260906034555 12 293 6.4 19.3 0.00 0.25 0.00 83 1017.8
20260906033053 12 277 4.8 16.1 0.00 0.25 0.00 82 1017.6
20260906031550 12 257 3.2 14.5 0.00 0.25 0.00 82 1017.5
20260906030047 12 294 4.8 17.7 0.00 0.25 0.00 81 1017.4
20260906024545 12 246 3.2 16.1 0.00 0.25 0.00 81 1017.2
20260906023058 12 291 3.2 12.9 0.00 0.25 0.00 81 1017.0
20260906021625 12 286 4.8 16.1 0.00 0.25 0.00 80 1016.8
20260906020022 13 304 6.4 20.9 0.00 0.25 0.00 79 1016.7
20260906014526 13 235 3.2 24.1 0.00 0.25 0.00 79 1016.5
20260906013016 13 311 8.0 17.7 0.00 0.25 0.00 79 1016.4
20260906011513 13 314 4.8 24.1 0.00 0.25 0.00 78 1016.2
20260906010009 13 326 3.2 22.5 0.00 0.25 0.00 78 1016.0
20260906004508 13 219 6.4 20.9 0.00 0.25 0.00 79 1016.0
20260906003006 13 220 9.7 24.1 0.00 0.25 0.00 78 1015.7
20260906001504 13 257 4.8 22.5 0.00 0.25 0.00 78 1015.6
20260906000003 13 245 6.4 24.1 0.00 0.25 0.00 78 1015.5
20260905234603 13 238 4.8 25.7 0.00 0.25 0.00 78 1015.3
20260905233059 13 22 6.4 22.5 0.00 0.25 0.00 78 1015.1
20260905231557 13 245 8.0 24.1 0.00 0.25 0.00 78 1014.9
20260905230055 13 304 8.0 24.1 0.00 0.25 0.00 77 1014.7
20260905224603 13 298 6.4 20.9 0.00 0.25 0.00 77 1014.5
20260905223049 13 219 8.0 25.7 0.00 0.25 0.00 76 1014.2
20260905221547 13 318 6.4 24.1 0.00 0.25 0.00 77 1014.2
20260905220044 13 31 9.7 30.6 0.00 0.25 0.00 76 1013.9
20260905214541 13 249 6.4 33.8 0.00 0.25 0.25 76 1013.7
20260905213040 13 192 11.3 32.2 0.00 0.25 0.25 75 1013.6
20260905211537 13 235 4.8 19.3 0.00 0.25 0.25 76 1013.4
20260905210037 13 297 6.4 27.4 0.00 0.25 0.25 76 1013.2
20260905204533 13 5 6.4 22.5 0.00 0.25 0.25 76 1013.1
20260905203030 13 294 6.4 25.7 0.00 0.25 0.25 76 1012.9
20260905201527 13 294 8.0 20.9 0.00 0.25 0.25 76 1012.8
20260905200034 14 309 4.8 29.0 0.00 0.25 0.25 76 1012.5
20260905194525 14 231 8.0 29.0 0.00 0.25 0.25 76 1012.5
20260905193023 14 187 8.0 19.3 0.00 0.25 0.25 76 1012.5
20260905191520 14 294 9.7 20.9 0.00 0.25 0.25 76 1012.1
20260905190039 14 184 11.3 24.1 0.00 0.25 0.25 76 1012.0
20260905184516 14 307 6.4 17.7 0.00 0.25 0.25 77 1011.9
20260905183016 14 232 4.8 22.5 0.00 0.25 0.25 76 1011.8
20260905181517 14 225 8.0 22.5 0.00 0.25 0.25 76 1011.5
20260905180019 15 229 6.4 25.7 0.00 0.25 0.25 76 1011.4
20260905174510 15 40 9.7 32.2 0.00 0.46 0.25 74 1011.3
20260905173008 15 246 4.8 20.9 0.00 0.46 0.25 75 1011.0
20260905171507 15 231 11.3 32.2 0.00 0.46 0.25 73 1010.9
20260905170004 15 225 8.0 22.5 0.00 0.46 0.25 74 1010.8
20260905164503 15 269 8.0 17.7 0.00 0.46 0.25 74 1010.6
20260905163002 15 229 8.0 27.4 0.00 0.46 0.25 75 1010.4
20260905161501 15 155 9.7 22.5 0.00 0.46 0.25 77 1010.4
20260905160122 15 191 4.8 19.3 0.15 0.46 0.25 81 1010.0